Location: Key Biscayne
(25.6930°N, 80.1630°W)
Time: 08:22:18
(UTC-04:00)

CZ-2D R/B - Visible Passes

Search period start: 23 September 2014 00:00
Search period end: 03 October 2014 00:00
Orbit: 536 x 554 km, 97.6° (Epoch: 22 September)

Date Brightness Start Highest point End Pass type
(mag) Time Alt. Az. Time Alt. Az. Time Alt. Az.
23 Sep 4.8 21:21:30 34° NW 21:21:30 34° NW 21:24:09 10° NNW visible
24 Sep 4.7 21:15:51 36° NW 21:15:51 36° NW 21:18:25 10° NNW visible
25 Sep 4.6 21:10:11 37° NNW 21:10:11 37° NNW 21:12:39 10° NNW visible
26 Sep 4.5 21:04:30 35° NNW 21:04:30 35° NNW 21:06:52 10° NNW visible
27 Sep 4.6 20:58:50 32° N 20:58:50 32° N 21:01:02 10° N visible
28 Sep 4.7 20:53:09 29° N 20:53:09 29° N 20:55:10 10° N visible
29 Sep 4.8 20:47:28 25° N 20:47:28 25° N 20:49:16 10° N visible
30 Sep 5.0 20:41:46 22° NNE 20:41:46 22° NNE 20:43:21 10° N visible
01 Oct 5.1 20:36:04 19° NNE 20:36:04 19° NNE 20:37:23 10° N visible
02 Oct 5.3 20:30:22 16° NNE 20:30:22 16° NNE 20:31:23 10° NNE visible
